Regional Weather Roundup
Issued by NWS

Home | Current Version | Previous Version | Graphics & Text | Print | Product List | Glossary On
Versions: 1 2 3 4 5 6 7 8 9 10 11 12 13 14 15 16 17 18 19 20 21 22 23 24 25 26 27 28 29 30 31 32 33 34 35 36 37 38 39 40 41 42 43 44 45 46 47 48 49 50
000
ASUS43 KLOT 021503
RWRIL

ILLINOIS REGIONAL WEATHER ROUNDUP
NATIONAL WEATHER SERVICE CHICAGO/ROMEOVILLE IL
900 AM CST FRI DEC 02 2016

NOTE: "FAIR" INDICATES FEW OR NO CLOUDS BELOW 12,000 FEET WITH NO
SIGNIFICANT WEATHER AND/OR OBSTRUCTIONS TO VISIBILITY.

* THESE STATIONS ARE NOT UNDER NWS QUALITY CONTROL. THEY ALSO MAY NOT
  REPORT WEATHER SUCH AS PRECIPITATION OR FOG.

ILZ001-002-007-009-015-016-024-021600-
NORTHWEST ILLINOIS

CITY           SKY/WX    TMP DP  RH WIND       PRES   REMARKS
MOLINE         CLOUDY    39  32  76 W7        30.19R WCI  34
STERLING*      CLOUDY    37  35  92 W9        30.18R WCI  30
$$

ILZ003-004-008-010-011-017-018-021600-
NORTH CENTRAL ILLINOIS

CITY           SKY/WX    TMP DP  RH WIND       PRES   REMARKS
ROCKFORD       LGT SNOW  34  31  88 NW10G20   30.17R VSB 1   WCI  26
FREEPORT*      PTSUNNY   35  32  89 W10       30.17R WCI  28
ROCHELLE*      CLOUDY    37  35  93 W10       30.16R WCI  29
$$

ILZ005-006-012>014-019>023-021600-
NORTHEAST ILLINOIS

CITY           SKY/WX    TMP DP  RH WIND       PRES   REMARKS
CHICAGO-OHARE  CLOUDY    38  31  76 W10       30.13R WCI  31
CHICAGO-MIDWAY CLOUDY    39  31  72 W10       30.14R WCI  32
AURORA         CLOUDY    38  34  85 W9        30.15R WCI  31
LANSING*       CLOUDY    37  35  92 W8        30.16  WCI  31
WAUKEGAN       CLOUDY    36  30  79 NW5       30.12R WCI  32
DUPAGE AIRPORT CLOUDY    37  31  78 W7        30.14R WCI  32
KANKAKEE*      CLOUDY    37  33  87 W12       30.18R WCI  29
WHEELING       CLOUDY    37  30  75 N7        30.14R WCI  32
MORRIS*        CLOUDY    38  35  90 W9        30.16S WCI  31
$$

LMZ740>746-021600-
SOUTHERN LAKE MICHIGAN

STATION/POSITION SKY/WX   TEMP    WIND        PRES    VSBY  WAVE
                          AIR SEA DIR/SP/G                  HT/PER
                          (F)     (DEG/KT/KT) (MB)    (MI)  (FT/S)
SOUTHERN BUOY              38 49  300/ 17/ 21 1019.6R         4/ 5
HARRISON CRIB              40     280/ 15/ 17   N/A
CALUMET HARBOR             38     220/  6/  9 1019.8
BURNS HARBOR               39     240/ 11/ 14 1021.0R
MICHIGAN CITY              40     240/ 18/ 20   N/A
$$

ILZ025>027-034>036-040-047-049-050-058-095>099-021600-
WEST-CENTRAL ILLINOIS

CITY           SKY/WX    TMP DP  RH WIND       PRES   REMARKS
QUINCY         CLOUDY    33  29  85 W5        30.24R WCI  29
GALESBURG*     CLOUDY    37  33  87 W9        30.20R WCI  30
MACOMB*        CLOUDY    37  33  84 W8        30.25R WCI  31
JACKSONVILLE*  CLOUDY    34  29  83 W6        30.24R WCI  29
PITTSFIELD*    SUNNY     34  29  82 W5        30.25S WCI  30
$$

ILZ028>032-037-038-041>044-048-051>054-059>061-021600-
CENTRAL ILLINOIS

CITY           SKY/WX    TMP DP  RH WIND       PRES   REMARKS
PONTIAC        CLOUDY    38  36  93 W8        30.19R WCI  32
BLOOMINGTON    CLOUDY    36  32  85 W8        30.20  WCI  30
DECATUR        CLOUDY    38  30  73 W7        30.22R WCI  33
PEORIA         CLOUDY    37  32  82 W7        30.21R WCI  32
LACON*         CLOUDY    37  32  84 W6        30.19R WCI  32
LINCOLN*       CLOUDY    38  32  78 W5        30.22R WCI  35
SPRINGFIELD    CLOUDY    37  31  78 W10       30.24R WCI  30
TAYLORVILLE    CLOUDY    34  30  85 W8        30.25R WCI  28
$$

ILZ033-039-045-046-055>057-062-063-021600-
EAST-CENTRAL ILLINOIS

CITY           SKY/WX    TMP DP  RH WIND       PRES   REMARKS
CHAMPAIGN      CLOUDY    38  31  76 W13       30.20R HAZE    WCI  30
RANTOUL*       CLOUDY    38  34  85 W10       30.19R WCI  31
MATTOON        CLOUDY    36  29  75 W8        30.22R WCI  30
PARIS*         CLOUDY    37  33  85 W9        30.21R WCI  30
$$

ILZ079-100>102-021600-
SOUTHWEST ILLINOIS

CITY           SKY/WX    TMP DP  RH WIND       PRES   REMARKS
ALTON          SUNNY     34  32  93 CALM      30.26R
BELLEVILLE     SUNNY     35  34  96 W1        30.25R
CAHOKIA*       SUNNY     34  29  82 SW5       30.27R WCI  30
SPARTA*        SUNNY     34  30  85 CALM      30.28R
$$

ILZ064>066-069>071-074>076-080>082-084>086-088>090-092>094-021600-
SOUTH-CENTRAL ILLINOIS

CITY           SKY/WX    TMP DP  RH WIND       PRES   REMARKS
CARBONDALE     SUNNY     34  31  88 CALM      30.28R
CAIRO*         SUNNY     37  36  95 CALM      30.28R
EFFINGHAM*     CLOUDY    35  34  93 S3        30.26R
MARION         SUNNY     37  34  87 CALM      30.28R
CENTRALIA*     SUNNY     35  32  89 NW3       30.25S
SALEM*         SUNNY     35  32  88 CALM      30.26R FOG
METROPOLIS*    SUNNY     36  35  94 CALM      30.29R
$$

ILZ067-068-072-073-078-083-087-091-021600-
SOUTHEAST ILLINOIS

CITY           SKY/WX    TMP DP  RH WIND       PRES   REMARKS
LAWRENCEVILLE  PTSUNNY   35  30  82 NW6       30.25R WCI  30
FLORA*         SUNNY     38  32  79 W7        30.26R WCI  33
FAIRFIELD*     SUNNY     35  32  88 CALM      30.25R
HARRISBURG*    SUNNY     34  32  93 CALM      30.28R
ROBINSON*      CLOUDY    35  31  86 W7        30.25R WCI  29
CARMI*         SUNNY     33  32  94 W3        30.26R FOG
$$

ABBREVIATIONS USED IN REMARKS
   TC - TEMPERATURE IN CELSIUS
  WCI - WIND CHILL INDEX
   HX - HEAT INDEX
  VSB - VISIBILITY
$$





USA.gov is the U.S. government's official web portal to all federal, state and local government web resources and services.